FENGYUN 1C DEB

Satellite information

Favourite Embed

Satellite Type and Status

DEBRISIN ORBIT

Key statistics

Satellite FENGYUN 1C DEB at a glance.

Uptime

9655

Days in orbit

Revolutions

≈ 14.2

Per day

Orbit

SSO

Sun Synchronous Orbit

Inclination

98.5

Latest

Satellite identification and parameters

Extended collection of information and parameters for FENGYUN 1C DEB.

Object identification

Identified? True

Debris? True

Object name: FENGYUN 1C DEB

International designator: 1999-025AR

Object number (NORAD): 29751

Object ID (CCSDS): 29751

Country: PEOPLES REPUBLIC OF CHINA (PRC)

Current information (Y/N): Y

RCS size: SMALL

Orbital parameters

Period: 101.155 minutes

Inclination: 98.5499 deg

SMA: 7191.482 km

Apoapsis: 876.838 km

Periapsis: 749.857 km

RAAN: 317.1365 deg

Eccentricy: 0.00882858

Argument of periapsis: 312.4234 deg

Mean anomaly: 199.5192 deg

Mean motion: 14.23557853 rev/day

Mean motion (dot): 0.00000419 rev/day2

B* drag term: 0.00019533271 1/REarth

Two-line elements (TLE)

Creation date: Oct. 15, 2025, 2:21 a.m.

Reference frame: TEME

Reference center: EARTH

Epoch: Oct. 14, 2025, 1:57 p.m. UTC

TLE line 0: 0 FENGYUN 1C DEB

TLE line 1: 1 29751U 99025AR 25287.58136281 .00000419 00000-0 19533-3 0 9995

TLE line 2: 2 29751 98.5499 317.1365 0088286 312.4234 199.5192 14.23557853972318

Live tracking on map

Real-time ground track for satellite FENGYUN 1C DEB.

In-orbit conjunctions

A list of the most updated potential collisions computed for object FENGYUN 1C DEB.

Target Orbit TCA Probability of collision Miss distance Type
DMSP 5D-2 F13 DEB SSO 2024-11-12 22:39:12 0.0001001046 191.0 (m) DEBRIS
SL-3 R/B LEO 2024-11-08 04:44:47 0.0001103654 205.0 (m) ROCKET BODY
METEOR 2-8 DEB LEO 2024-07-25 08:08:31 0.0001062714 147.0 (m) DEBRIS

Associated space launch

Chinese polar orbiting meteorological satellite

FENGYUN 1C DEB was lifted into orbit during the mission ‘Long March 4B | Feng Yun 1C’, on board a Long March 4B space rocket.

The launch took place on May 10, 1999, 1:33 a.m. from Launch Complex 7.

For more information about the launch, click the button.

Launch to space Long March 4B | Feng Yun 1C
Long March 4B | Feng Yun 1C

Agency: N/A

Status: Launch Successful

Launch date: May 10, 1999, 1:33 a.m. UTC

Rocket: Long March 4B

Launch pad: Launch Complex 7

Location: Taiyuan Satellite Launch Center, People's Republic of China

...

Latest news about this satellite

There are no fresh news available about this satellite. Check back as we update our databases every day.


Newsletter sign-up

Weekly statistics, charts and insights to help you stay on top of the space industry.